Franklin, NC

4:21 PM EDT on August 21, 2017 (GMT -0400)
Franklin

Weather History for K1A5 - January, 2005

Change the Weather History Date:

Wednesday, January 12, 2005

  Actual Average (KTOC) Record (KTOC)
Temperature  
Mean Temperature 55 °F -  
Max Temperature 66 °F 49 °F 75 °F (2017)
Min Temperature 44 °F 29 °F 28 °F (2016)
Degree Days  
Heating Degree Days 10    
Growing Degree Days 5 (Base 50)    
Moisture  
Dew Point 48 °F    
Average Humidity 74    
Maximum Humidity 94    
Minimum Humidity 46    
Precipitation  
Precipitation 0.00 in - - ()
Sea Level Pressure  
Sea Level Pressure 30.13 in    
Wind  
Wind Speed 2 mph (SE)    
Max Wind Speed 9 mph    
Max Gust Speed 17 mph    
Visibility 7 miles    
Events Fog    
Averages and records for this station are not official NWS values.
T = Trace of Precipitation, MM = Missing Value Source: NWS Daily Summary

Daily Weather History Graph

Daily Weather History Graph

Search for Another Location

Airport or City:

Trip Planner

Search our weather history database for the weather conditions in past years. The results will help you decide how hot, cold, wet, or windy it might be!

Date:

Astronomy

Jan. 12, 2005 Rise Set
Actual Time 7:42 AM EST 5:42 PM EST
Civil Twilight 7:14 AM EST 6:09 PM EST
Nautical Twilight 6:43 AM EST 6:41 PM EST
Astronomical Twilight 6:12 AM EST 7:11 PM EST
Moon 9:45 AM EST (1/12) 8:27 PM EST (1/12)
Length of Visible Light 10h 55m
Length of Day
9h 59m
Waxing Crescent, 7% of the Moon is Illuminated
Jan 12
Waxing Crescent
Jan 17
First Quarter
Jan 25
Full
Feb 2
Last Quarter
Feb 8
New

Hourly Weather History & Observations

Time (EST) Temp. Dew Point Humidity Pressure Visibility Wind Dir Wind Speed Gust Speed Precip Events Conditions
12:00 AM 48.2 °F 46.4 °F 93% 30.14 in 5.0 mi Calm Calm - N/A   Mostly Cloudy
12:20 AM 50.0 °F 46.4 °F 87% 30.14 in 5.0 mi Calm Calm - N/A   Overcast
12:40 AM 48.2 °F 46.4 °F 93% 30.13 in 5.0 mi Calm Calm - N/A   Mostly Cloudy
1:00 AM 48.2 °F 44.6 °F 87% 30.13 in 4.0 mi Calm Calm - N/A   Overcast
1:40 AM 46.4 °F 44.6 °F 93% 30.12 in 4.0 mi Calm Calm - N/A   Mostly Cloudy
2:00 AM 46.4 °F 44.6 °F 93% 30.12 in 4.0 mi Calm Calm - N/A   Clear
2:20 AM 46.4 °F 44.6 °F 93% 30.12 in 4.0 mi Calm Calm - N/A   Mostly Cloudy
3:00 AM 46.4 °F 44.6 °F 93% 30.12 in 4.0 mi Calm Calm - N/A   Overcast
3:20 AM 48.2 °F 44.6 °F 87% 30.12 in 5.0 mi Calm Calm - N/A   Overcast
3:40 AM 50.0 °F 46.4 °F 87% 30.12 in 5.0 mi Calm Calm - N/A   Overcast
4:00 AM 50.0 °F 46.4 °F 87% 30.12 in 4.0 mi Calm Calm - N/A   Overcast
5:00 AM 50.0 °F 46.4 °F 87% 30.12 in 4.0 mi Calm Calm - N/A   Overcast
5:20 AM 50.0 °F 46.4 °F 87% 30.13 in 4.0 mi Calm Calm - N/A   Overcast
5:40 AM 50.0 °F 46.4 °F 87% 30.12 in 4.0 mi Calm Calm - N/A   Overcast
6:00 AM 50.0 °F 46.4 °F 87% 30.13 in 3.0 mi Calm Calm - N/A   Overcast
6:20 AM 50.0 °F 46.4 °F 87% 30.14 in 2.5 mi Calm Calm - N/A   Overcast
6:40 AM 48.2 °F 46.4 °F 93% 30.13 in 1.8 mi Calm Calm - N/A   Mostly Cloudy
7:00 AM 46.4 °F 44.6 °F 93% 30.14 in 1.0 mi Calm Calm - N/A   Mist
7:20 AM 46.4 °F 42.8 °F 87% 30.14 in 0.2 mi Calm Calm - N/A Fog Fog
7:40 AM 44.6 °F 42.8 °F 93% 30.14 in 0.5 mi Calm Calm - N/A Fog Fog
8:00 AM 46.4 °F 44.6 °F 93% 30.14 in 0.2 mi Calm Calm - N/A Fog Fog
8:20 AM 46.4 °F 44.6 °F 93% 30.14 in 0.2 mi Calm Calm - N/A Fog Fog
8:40 AM 48.2 °F 46.4 °F 93% 30.15 in 1.5 mi Calm Calm - N/A   Overcast
9:00 AM 50.0 °F 46.4 °F 87% 30.16 in 2.5 mi Calm Calm - N/A   Overcast
9:20 AM 51.8 °F 50.0 °F 94% 30.16 in 4.0 mi Calm Calm - N/A   Overcast
9:40 AM 55.4 °F 53.6 °F 94% 30.16 in 5.0 mi East 3.5 mph - N/A   Overcast
10:00 AM 62.6 °F 51.8 °F 68% 30.16 in 10.0 mi East 5.8 mph - N/A   Overcast
10:20 AM 62.6 °F 51.8 °F 68% 30.17 in 10.0 mi East 5.8 mph - N/A   Mostly Cloudy
10:40 AM 62.6 °F 51.8 °F 68% 30.17 in 10.0 mi East 5.8 mph - N/A   Mostly Cloudy
11:00 AM 64.4 °F 51.8 °F 64% 30.17 in 10.0 mi ESE 6.9 mph - N/A   Mostly Cloudy
11:20 AM 64.4 °F 50.0 °F 59% 30.17 in 10.0 mi SE 9.2 mph - N/A   Overcast
11:40 AM 64.4 °F 50.0 °F 59% 30.16 in 10.0 mi ESE 4.6 mph - N/A   Mostly Cloudy
12:00 PM 64.4 °F 48.2 °F 56% 30.16 in 10.0 mi South 5.8 mph - N/A   Mostly Cloudy
12:20 PM 62.6 °F 48.2 °F 59% 30.15 in 10.0 mi South 4.6 mph - N/A   Overcast
12:40 PM 64.4 °F 46.4 °F 52% 30.13 in 10.0 mi SE 5.8 mph - N/A   Overcast
1:00 PM 64.4 °F 50.0 °F 59% 30.12 in 10.0 mi SSE 6.9 mph - N/A   Mostly Cloudy
1:20 PM 64.4 °F 46.4 °F 52% 30.12 in 10.0 mi SSW 6.9 mph - N/A   Mostly Cloudy
1:40 PM 64.4 °F 48.2 °F 56% 30.11 in 10.0 mi South 4.6 mph - N/A   Scattered Clouds
2:00 PM 66.2 °F 44.6 °F 46% 30.10 in 10.0 mi SSW 6.9 mph - N/A   Scattered Clouds
2:20 PM 64.4 °F 44.6 °F 49% 30.10 in 10.0 mi SSW 9.2 mph - N/A   Scattered Clouds
2:40 PM 64.4 °F 46.4 °F 52% 30.09 in 10.0 mi SSE 5.8 mph - N/A   Scattered Clouds
3:00 PM 64.4 °F 46.4 °F 52% 30.10 in 10.0 mi South 5.8 mph - N/A   Scattered Clouds
3:20 PM 64.4 °F 48.2 °F 56% 30.10 in 10.0 mi South 4.6 mph - N/A   Scattered Clouds
3:40 PM 64.4 °F 48.2 °F 56% 30.09 in 10.0 mi Calm Calm - N/A   Mostly Cloudy
4:00 PM 64.4 °F 48.2 °F 56% 30.09 in 10.0 mi SE 5.8 mph - N/A   Scattered Clouds
4:20 PM 64.4 °F 50.0 °F 59% 30.10 in 10.0 mi SSE 9.2 mph 17.3 mph N/A   Mostly Cloudy
4:40 PM 64.4 °F 50.0 °F 59% 30.11 in 10.0 mi ESE 4.6 mph - N/A   Mostly Cloudy
5:00 PM 64.4 °F 50.0 °F 59% 30.11 in 10.0 mi SE 4.6 mph - N/A   Scattered Clouds
5:20 PM 62.6 °F 50.0 °F 63% 30.11 in 10.0 mi SSE 4.6 mph - N/A   Scattered Clouds
5:40 PM 62.6 °F 50.0 °F 63% 30.11 in 10.0 mi SE 5.8 mph - N/A   Scattered Clouds
6:00 PM 62.6 °F 50.0 °F 63% 30.11 in 10.0 mi SE 5.8 mph - N/A   Mostly Cloudy
6:40 PM 62.6 °F 50.0 °F 63% 30.13 in 10.0 mi SSE 5.8 mph - N/A   Mostly Cloudy
7:20 PM 60.8 °F 50.0 °F 68% 30.13 in 10.0 mi SE 8.1 mph - N/A   Scattered Clouds
8:00 PM 60.8 °F 48.2 °F 63% 30.14 in 10.0 mi Calm Calm - N/A   Clear
8:20 PM 59.0 °F 50.0 °F 72% 30.15 in 10.0 mi SE 3.5 mph - N/A   Clear
8:40 PM 59.0 °F 48.2 °F 67% 30.15 in 10.0 mi Calm Calm - N/A   Clear
9:00 PM 59.0 °F 46.4 °F 63% 30.15 in 10.0 mi Calm Calm - N/A   Clear
9:20 PM 53.6 °F 46.4 °F 77% 30.14 in 10.0 mi Calm Calm - N/A   Scattered Clouds
9:40 PM 55.4 °F 50.0 °F 82% 30.13 in 10.0 mi East 4.6 mph - N/A   Mostly Cloudy
10:00 PM 59.0 °F 51.8 °F 77% 30.12 in 10.0 mi East 5.8 mph - N/A   Mostly Cloudy
10:20 PM 60.8 °F 51.8 °F 72% 30.12 in 10.0 mi SE 3.5 mph - N/A   Mostly Cloudy
10:40 PM 60.8 °F 51.8 °F 72% 30.11 in 10.0 mi East 6.9 mph - N/A   Scattered Clouds
11:00 PM 60.8 °F 51.8 °F 72% 30.11 in 10.0 mi East 4.6 mph - N/A   Scattered Clouds
11:20 PM 60.8 °F 51.8 °F 72% 30.11 in 10.0 mi SE 4.6 mph - N/A   Mostly Cloudy
11:40 PM 60.8 °F 51.8 °F 72% 30.11 in 10.0 mi SE 6.9 mph - N/A   Scattered Clouds